Weather History for Hartford, CT

Change the Weather History Date:

Monday, September 30, 2013

  Actual Average Record
Temperature  
Mean Temperature 59 °F -  
Max Temperature 72 °F 69 °F 85 °F (1922)
Min Temperature 46 °F 44 °F 31 °F (1951)
Degree Days  
Heating Degree Days 6    
Growing Degree Days 9 (Base 50)    
Moisture  
Dew Point 49 °F    
Average Humidity 86    
Maximum Humidity 100    
Minimum Humidity 45    
Precipitation  
Precipitation 0.01 in - - ()
Sea Level Pressure  
Sea Level Pressure 30.06 in    
Wind  
Wind Speed 1 mph (NNE)    
Max Wind Speed 9 mph    
Max Gust Speed -    
Visibility 6 miles    
Events Fog    
Averages and records for this station are not official NWS values.
T = Trace of Precipitation, MM = Missing Value Source: NWS Daily Summary

Daily Weather History Graph

Daily Weather History Graph

Search for Another Location

Airport:

Trip Planner

Search our weather history database for the weather conditions in past years. The results will help you decide how hot, cold, wet, or windy it might be!

Date:

Astronomy

Sep. 30, 2013 Rise Set
Actual Time 6:46 AM EDT 6:33 PM EDT
Civil Twilight 6:18 AM EDT 7:01 PM EDT
Nautical Twilight 5:46 AM EDT 7:33 PM EDT
Astronomical Twilight 5:13 AM EDT 8:06 PM EDT
Moon 2:17 AM EDT (9/30) 4:05 PM EDT (9/30)
Length of Visible Light 12h 42m
Length of Day
11h 47m
Waning Crescent, 19% of the Moon is Illuminated
Sep 30
Waning Crescent
Oct 4
New
Oct 11
First Quarter
Oct 18
Full
Oct 26
Last Quarter

Hourly Weather History & Observations

Time (EDT) Temp. Dew Point Humidity Pressure Visibility Wind Dir Wind Speed Gust Speed Precip Events Conditions
12:00 AM 51.8 °F 48.2 °F 88% 30.12 in 1.8 mi Calm Calm - N/A   Clear
12:09 AM 51.8 °F 50.0 °F 94% 30.11 in 0.8 mi Calm Calm - N/A   Clear
12:15 AM 51.8 °F 50.0 °F 94% 30.11 in 3.0 mi Calm Calm - N/A   Clear
12:29 AM 50.0 °F 48.2 °F 94% 30.11 in 1.2 mi Calm Calm - N/A   Clear
12:36 AM 48.2 °F 48.2 °F 100% 30.11 in 0.2 mi Calm Calm - N/A Fog Fog
12:48 AM 50.0 °F 48.2 °F 94% 30.11 in 1.2 mi Calm Calm - N/A   Partly Cloudy
12:53 AM 50.0 °F 48.0 °F 93% 30.11 in 2.5 mi Calm Calm - N/A   Partly Cloudy
1:00 AM 50.0 °F 48.2 °F 94% 30.10 in 7.0 mi Calm Calm - N/A   Clear
1:29 AM 50.0 °F 48.2 °F 94% 30.10 in 1.8 mi Calm Calm - N/A   Clear
1:42 AM 50.0 °F 48.2 °F 94% 30.10 in 4.0 mi Calm Calm - N/A   Clear
1:50 AM 48.2 °F 48.2 °F 100% 30.10 in 1.5 mi Calm Calm - N/A   Partly Cloudy
1:53 AM 48.0 °F 46.9 °F 96% 30.10 in 1.2 mi Calm Calm - N/A   Partly Cloudy
2:00 AM 48.2 °F 46.4 °F 93% 30.10 in 3.0 mi Calm Calm - N/A   Clear
2:42 AM 48.2 °F 48.2 °F 100% 30.10 in 2.0 mi Calm Calm - N/A   Clear
2:50 AM 48.2 °F 48.2 °F 100% 30.10 in 7.0 mi Calm Calm - N/A   Clear
2:53 AM 48.9 °F 48.0 °F 97% 30.10 in 3.0 mi Calm Calm - N/A   Clear
2:57 AM 50.0 °F 48.2 °F 94% 30.10 in 1.8 mi Calm Calm - N/A   Clear
3:03 AM 48.2 °F 48.2 °F 100% 30.09 in 4.0 mi Calm Calm - N/A   Clear
3:53 AM 48.0 °F 46.9 °F 96% 30.10 in 10.0 mi NNE 3.5 mph - 0.01 in   Clear
4:53 AM 48.0 °F 46.0 °F 93% 30.09 in 7.0 mi Calm Calm - N/A   Clear
5:53 AM 46.9 °F 46.0 °F 97% 30.09 in 9.0 mi NE 3.5 mph - N/A   Clear
6:53 AM 46.0 °F 45.0 °F 96% 30.09 in 7.0 mi Calm Calm - N/A   Clear
6:56 AM 46.4 °F 44.6 °F 93% 30.09 in 8.0 mi Calm Calm - N/A   Partly Cloudy
7:53 AM 50.0 °F 46.9 °F 89% 30.10 in 8.0 mi North 4.6 mph - N/A   Partly Cloudy
8:53 AM 51.1 °F 48.0 °F 89% 30.10 in 10.0 mi NE 6.9 mph - N/A   Clear
9:53 AM 54.0 °F 48.9 °F 83% 30.08 in 10.0 mi Variable 3.5 mph - N/A   Clear
10:53 AM 60.1 °F 52.0 °F 75% 30.08 in 10.0 mi Calm Calm - N/A   Clear
11:53 AM 64.9 °F 51.1 °F 61% 30.05 in 10.0 mi NNE 3.5 mph - N/A   Clear
12:53 PM 68.0 °F 48.9 °F 50% 30.03 in 10.0 mi Calm Calm - N/A   Clear
1:53 PM 71.1 °F 48.9 °F 45% 30.00 in 10.0 mi North 9.2 mph - N/A   Clear
2:53 PM 71.1 °F 48.9 °F 45% 29.99 in 10.0 mi NNE 3.5 mph - N/A   Clear
3:53 PM 72.0 °F 50.0 °F 46% 29.98 in 10.0 mi NNE 5.8 mph - N/A   Clear
4:53 PM 72.0 °F 50.0 °F 46% 29.96 in 10.0 mi Variable 3.5 mph - N/A   Clear
5:53 PM 70.0 °F 51.1 °F 51% 29.96 in 10.0 mi Calm Calm - N/A   Clear
6:53 PM 63.0 °F 55.9 °F 78% 29.97 in 10.0 mi Calm Calm - N/A   Clear
7:53 PM 59.0 °F 55.0 °F 87% 29.98 in 10.0 mi South 4.6 mph - N/A   Clear
8:53 PM 57.9 °F 54.0 °F 87% 29.99 in 10.0 mi Calm Calm - N/A   Clear
9:53 PM 57.0 °F 54.0 °F 89% 29.99 in 10.0 mi Calm Calm - N/A   Clear
10:53 PM 55.9 °F 54.0 °F 93% 29.99 in 10.0 mi Calm Calm - N/A   Clear
11:47 PM 53.6 °F 51.8 °F 94% 29.98 in 1.2 mi Calm Calm - N/A   Clear
11:53 PM 53.1 °F 52.0 °F 96% 29.98 in 1.0 mi Calm Calm - N/A   Clear
11:58 PM 51.8 °F 51.8 °F 100% 29.98 in 3.0 mi Calm Calm - N/A   Clear